Location: Waco, TX
(31.5480°N, 97.1670°W)
Time: 17:14:30

ISS - Pass Details

Date: 10 March 2018
Orbit: 403 x 406 km, 51.6° (Epoch: 18 March)

Event Time Altitude Azimuth Distance (km) Brightness Sun altitude
Rises 07:56:40 0° 333° (NNW) 2,322 -0.4 14.3°
Reaches altitude 10° 07:59:35 10° 1° (N) 1,459 -1.1 14.9°
Maximum altitude 08:01:19 14° 33° (NNE) 1,263 -1.0 15.2°
Drops below altitude 10° 08:03:02 10° 65° (ENE) 1,455 -0.1 15.6°
Sets 08:05:55 0° 94° (E) 2,310 1.7 16.2°
